Theta_e
321 324 325 326 327 327 333 332 329 331 331 324 318 321 318 319 323 319 319 320 319 316 313 315 317 317 319 320 318 317 317 318 319 329 331 319 317 314 314 316 316 317 318 321 323 325 325 326 327 329 331 333 334 334 334 335 337 338 340 340 341 341 340 341 341 341 340 341 340 340 341 341 342 342 343 342 342 342 342 341 340 341 340 339 339 338 339 339 338 339 338 339 338 338 337 336 337
322 326 327 327 326 328 335 335 335 333 331 321 318 321 315 320 322 319 322 320 318 314 313 314 315 315 316 317 316 318 317 316 316 320 318 314 315 311 310 311 311 312 312 314 316 319 322 324 325 327 329 330 330 330 330 330 333 334 335 337 339 339 340 340 340 340 341 340 339 339 341 341 340 341 341 341 342 342 342 342 341 340 340 339 339 339 339 339 339 339 339 338 338 338 337 335 335
324 328 327 328 328 329 338 336 333 332 330 323 321 325 317 318 321 321 322 317 315 313 315 316 315 314 314 316 316 318 318 314 314 317 316 312 313 310 308 308 308 309 310 310 311 314 316 319 322 324 326 327 328 329 328 328 330 330 331 334 336 337 338 339 339 340 340 339 338 339 340 339 339 339 339 339 339 340 341 341 341 340 340 340 339 339 339 339 339 339 339 339 338 337 337 334 333
324 327 325 329 330 334 348 339 335 335 328 324 321 324 323 322 322 322 320 317 315 314 318 318 316 312 313 316 315 317 316 314 312 316 316 311 311 308 305 307 307 309 308 308 310 312 314 315 318 320 322 323 324 325 326 326 328 328 329 331 332 334 335 335 337 337 337 338 338 339 339 340 340 340 340 341 340 339 339 339 339 340 339 340 339 339 338 338 339 339 340 339 338 338 337 336 333
321 324 323 328 330 332 340 331 335 334 323 326 322 322 330 328 323 320 317 316 315 315 317 318 315 311 312 313 315 317 313 313 312 312 315 310 308 305 305 306 307 308 307 307 309 311 311 313 315 317 319 321 321 322 323 324 325 326 326 328 330 330 332 332 333 334 335 335 337 338 339 340 340 340 340 341 341 339 338 338 338 339 339 339 339 339 338 337 336 336 339 340 339 338 338 338 337
321 323 324 324 322 324 328 321 323 325 322 329 324 319 327 327 322 318 316 314 314 315 315 316 314 312 311 309 311 312 309 313 312 311 312 308 305 304 305 305 306 307 306 305 305 306 306 307 310 313 315 316 317 318 320 321 322 322 323 324 325 326 328 328 329 331 332 333 334 335 336 337 337 338 339 339 339 339 339 339 339 339 339 338 339 338 337 336 334 334 336 340 340 339 339 339 338
321 323 327 326 322 324 329 325 322 323 319 322 327 321 321 323 319 316 317 315 314 315 313 312 312 313 313 310 310 308 307 311 310 309 307 305 303 303 304 303 305 305 305 304 302 302 301 302 303 306 309 310 312 313 314 317 318 318 319 320 321 322 323 324 325 326 328 329 330 332 333 334 335 336 337 338 338 338 338 338 338 338 339 338 338 338 337 336 334 333 333 336 339 338 338 338 338
321 322 327 333 335 334 332 326 322 326 319 314 322 322 321 322 317 316 317 315 314 314 313 311 311 314 312 310 311 308 307 308 307 306 304 304 302 302 303 302 303 303 303 302 301 300 300 300 300 300 302 304 305 306 307 309 311 311 313 314 315 317 318 319 320 321 323 324 326 328 329 331 331 333 335 335 336 336 336 336 336 336 337 337 337 338 337 336 334 334 333 334 336 337 337 337 336
320 320 324 331 336 333 328 321 317 320 319 316 317 318 321 319 315 316 316 314 314 314 313 311 312 315 311 308 310 307 306 306 305 304 303 303 301 301 301 301 301 301 301 300 299 298 298 299 298 298 298 298 300 300 301 302 303 303 304 306 308 310 312 313 315 316 318 319 321 322 324 326 328 330 332 332 334 334 335 336 335 335 334 334 335 336 336 336 335 335 336 335 335 335 336 336 336
320 322 325 332 333 327 321 319 321 320 316 318 316 316 318 315 315 315 317 316 314 314 312 311 311 312 310 309 310 306 306 306 304 303 303 303 301 300 300 299 299 299 299 298 297 297 297 297 297 297 296 296 296 297 298 298 298 298 299 300 302 304 305 307 308 310 312 315 316 318 320 321 323 325 327 329 331 331 332 334 334 334 334 333 333 334 335 336 336 335 335 335 335 335 335 335 335
325 331 334 335 331 325 321 322 324 320 316 320 317 317 316 313 315 313 314 315 313 314 311 311 311 309 309 309 309 306 304 304 303 302 302 302 300 298 298 297 297 297 297 297 296 296 296 296 296 296 296 296 296 296 296 296 297 296 297 297 298 299 300 301 303 304 306 308 310 312 315 317 319 320 322 323 325 327 328 330 331 333 333 333 331 332 334 335 335 335 334 332 333 335 336 335 335
325 335 347 343 329 323 324 324 321 319 322 323 315 316 316 313 315 312 313 313 312 314 311 312 311 309 310 309 307 304 302 302 301 301 301 302 299 297 297 297 297 297 296 297 296 296 296 295 295 295 295 295 295 295 296 296 296 296 296 296 296 296 297 298 298 299 300 302 304 306 309 312 315 316 317 318 320 321 323 325 327 329 331 332 332 332 332 333 333 333 333 333 332 333 334 335 335
331 334 345 334 324 322 322 322 320 322 323 321 316 313 314 314 315 313 314 314 312 314 311 309 309 311 312 309 307 303 302 302 301 300 300 300 298 296 296 297 297 297 296 296 296 295 295 295 295 294 295 295 295 295 295 295 295 295 295 295 296 295 296 296 296 296 296 297 299 301 303 306 309 311 313 315 317 318 319 321 322 325 326 329 331 332 331 331 332 332 332 333 333 332 332 333 334
332 336 341 326 322 323 321 320 320 322 317 318 318 313 314 313 312 311 314 316 313 312 309 307 308 311 310 307 306 305 302 301 300 299 298 298 297 296 296 296 297 297 296 295 295 294 295 295 294 294 294 294 295 295 295 295 295 295 295 295 295 295 295 295 296 296 295 296 296 298 299 301 302 304 307 309 313 315 317 318 320 322 323 325 327 329 331 331 332 332 331 331 332 333 333 332 332
323 339 347 334 328 322 318 320 323 325 317 317 317 313 315 310 309 312 314 316 313 308 307 306 306 311 311 308 308 305 302 300 299 298 297 296 296 296 296 296 296 296 296 296 295 294 295 295 294 294 294 294 294 294 295 294 295 294 294 295 295 295 295 295 295 295 296 295 295 296 297 297 298 298 300 301 306 310 313 316 317 319 321 322 323 324 327 329 329 330 331 330 329 331 333 333 331
326 342 347 336 329 320 317 321 323 324 318 317 314 312 316 310 308 312 309 310 310 306 306 307 305 307 309 308 307 303 301 299 298 298 297 297 296 296 296 296 296 296 296 296 295 294 295 295 294 294 294 294 294 294 294 294 294 294 294 294 294 294 294 294 294 295 295 295 295 295 295 296 296 296 296 296 300 303 307 311 314 317 318 319 321 321 322 324 325 327 329 330 329 330 331 333 332
334 346 347 336 327 319 317 319 320 323 320 318 312 312 318 313 308 307 304 305 308 305 304 304 302 303 305 305 304 301 301 299 298 298 297 297 297 296 296 296 296 296 296 296 294 294 294 295 294 294 294 294 294 294 294 294 294 294 294 294 294 294 294 294 294 294 294 294 295 295 295 295 295 295 295 295 296 297 300 303 305 308 312 315 317 318 319 321 322 323 325 328 329 330 331 332 332
342 342 338 327 322 319 320 323 321 320 319 316 313 315 319 317 309 306 306 304 303 304 303 302 302 301 301 301 301 300 300 299 298 298 297 297 297 297 296 295 296 296 296 296 294 294 294 295 294 294 294 294 294 294 294 294 293 294 294 293 294 293 293 293 293 293 293 293 294 294 295 295 295 295 295 295 295 295 295 296 296 297 302 306 308 310 313 316 319 321 323 324 326 329 331 332 332
340 338 328 325 327 320 318 324 320 317 317 316 315 314 316 317 311 308 311 306 303 306 303 301 302 302 301 300 300 300 299 299 298 297 296 297 297 297 297 296 295 296 296 295 294 294 294 294 294 294 294 294 294 293 293 293 293 293 293 293 293 293 292 292 292 293 293 293 293 294 294 295 295 295 295 295 295 295 295 295 294 295 297 297 298 301 304 309 313 317 320 322 323 325 328 331 333
329 330 324 327 331 320 315 320 319 318 317 317 316 312 313 314 309 309 311 307 305 307 303 302 303 301 302 300 299 299 299 298 297 296 296 296 297 297 297 296 295 295 296 295 294 294 294 294 294 293 293 293 293 293 293 293 293 293 293 292 292 292 292 292 292 292 292 293 293 293 293 294 294 295 295 295 295 295 295 295 295 296 296 295 295 296 298 301 304 310 316 319 320 322 324 327 331
318 322 323 326 325 318 316 317 318 318 316 318 316 312 313 310 307 309 310 309 308 307 303 304 304 301 302 301 298 297 298 298 298 297 297 296 296 296 297 297 295 295 295 295 294 294 294 294 293 293 293 293 293 293 293 293 293 292 292 292 292 292 292 292 292 292 292 292 292 293 293 293 293 294 294 294 294 295 295 295 295 296 297 296 296 296 296 296 298 303 309 314 317 320 322 324 329
315 317 321 325 320 315 316 317 317 316 314 317 315 313 313 309 308 309 310 313 314 308 304 304 302 300 300 300 297 297 296 297 298 297 297 297 296 296 296 296 295 295 295 294 293 294 294 293 293 293 293 293 293 293 293 293 293 292 292 292 292 292 291 291 291 291 291 292 292 292 292 293 293 293 293 293 294 294 295 295 295 296 297 297 297 297 296 295 296 300 305 309 312 315 319 321 325
316 317 317 321 318 314 316 317 316 315 314 316 315 313 310 309 310 308 309 314 312 306 304 302 300 299 299 298 297 298 297 295 296 297 297 297 297 296 296 295 295 294 294 294 293 294 293 293 293 293 293 293 292 292 292 292 292 292 292 292 291 291 291 291 291 291 291 291 291 292 292 292 292 292 292 292 293 293 294 294 295 295 296 297 297 298 297 296 296 299 304 307 307 310 314 317 320
317 319 316 316 315 314 316 316 317 316 315 315 313 311 311 312 312 307 307 309 305 302 301 300 298 297 297 297 297 297 296 295 296 297 297 297 297 296 296 295 294 294 294 293 293 293 293 293 293 293 293 292 292 292 292 292 292 292 292 291 291 291 291 290 290 290 290 291 291 291 292 292 292 292 292 292 292 292 293 293 294 294 295 296 296 297 297 297 297 298 300 302 304 308 311 314 316
318 319 317 315 314 315 316 314 316 316 313 312 311 312 312 312 310 308 309 305 301 300 299 298 297 297 297 299 299 296 295 295 296 296 296 296 296 296 296 295 294 294 293 293 293 293 293 293 292 293 292 292 292 292 292 292 291 291 291 291 291 290 290 290 290 290 290 290 291 291 291 291 291 291 291 291 291 291 292 292 293 293 294 295 296 297 297 297 297 298 298 298 301 306 310 312 314
316 318 317 315 314 315 314 313 316 315 312 311 311 314 312 308 307 310 308 302 300 299 299 299 298 298 298 299 298 295 294 295 296 296 296 295 296 296 296 295 294 294 293 293 293 293 293 292 292 293 292 292 292 291 291 291 291 291 291 291 290 290 289 289 289 289 290 290 290 290 291 291 291 290 290 290 290 291 291 291 291 292 293 294 296 296 296 297 297 297 298 299 300 304 308 310 312
314 316 316 315 314 313 313 314 315 313 310 310 312 314 311 306 308 312 306 300 299 299 299 298 298 298 298 298 297 295 294 295 296 296 296 295 295 295 295 295 294 293 293 293 293 292 292 292 292 292 292 292 291 291 291 291 291 290 290 290 290 289 289 289 289 289 289 289 290 290 290 290 289 289 289 289 289 290 290 290 290 291 292 293 295 296 296 296 297 297 298 299 299 302 307 309 311
313 313 315 316 316 315 313 312 313 311 309 312 315 314 309 306 310 314 305 299 299 299 299 298 298 298 297 298 298 295 294 296 296 296 296 295 294 294 294 294 293 293 293 293 293 292 292 292 292 292 291 291 291 291 291 290 290 290 290 290 289 289 288 288 288 289 289 289 289 288 288 288 287 287 287 287 288 288 288 289 289 290 291 292 294 295 296 296 297 297 297 298 298 301 304 308 310
313 312 313 317 320 318 312 311 312 310 310 314 315 312 310 310 311 311 303 298 299 298 299 298 297 297 297 298 297 295 294 295 296 295 295 294 293 294 293 294 293 293 293 292 292 292 292 292 292 292 291 291 291 291 290 290 290 289 289 289 289 288 288 288 288 288 288 287 287 287 287 286 286 286 286 287 287 288 288 288 289 289 290 291 293 294 295 296 297 297 297 297 298 299 302 305 307
313 311 313 318 322 321 312 310 311 309 312 314 312 312 314 313 311 307 301 298 299 299 298 297 297 297 297 297 297 297 294 294 295 295 295 294 293 293 293 293 293 293 292 292 292 292 292 292 292 291 291 291 290 290 290 289 289 289 289 288 288 288 288 287 287 287 287 286 286 286 286 285 285 285 286 286 287 287 287 287 288 289 290 291 292 293 294 296 297 297 297 297 298 299 300 302 304
315 311 319 322 318 324 320 312 313 309 312 312 309 313 313 313 312 306 299 298 299 299 298 297 297 297 296 296 297 297 295 293 295 295 295 293 292 292 292 293 292 292 292 292 292 292 292 292 291 291 290 290 290 290 289 289 289 288 288 288 288 288 287 287 287 287 286 286 286 285 285 285 285 285 285 286 286 285 285 286 287 288 290 291 292 293 294 296 297 297 297 297 298 298 299 300 302
321 314 324 328 316 324 325 313 313 312 311 310 309 314 313 312 313 305 299 298 299 300 298 297 297 296 296 296 296 297 296 294 294 295 294 293 292 292 292 292 292 292 292 292 292 292 292 292 291 291 290 290 290 289 289 288 288 288 288 288 288 287 287 287 287 286 286 286 286 285 285 285 285 285 285 285 284 284 284 285 285 286 288 290 292 293 294 295 296 297 297 297 298 298 299 299 300
328 318 319 328 320 318 320 312 312 313 311 310 310 315 314 314 312 303 299 299 299 300 299 297 297 296 296 295 295 296 296 295 295 294 293 292 292 292 292 292 292 292 291 291 292 292 292 291 290 290 290 290 289 289 288 288 288 288 288 288 288 288 287 287 286 286 286 285 285 285 285 285 284 284 284 284 283 283 284 284 284 284 286 288 290 292 293 294 295 296 297 297 298 297 298 299 299
330 324 319 323 319 313 315 314 312 311 311 311 311 312 311 312 311 303 299 299 299 299 299 298 297 296 295 295 295 296 296 297 295 294 293 292 292 292 292 292 291 292 291 291 292 292 292 291 290 290 290 290 289 289 288 288 288 288 288 288 288 287 287 286 286 286 285 285 285 284 284 284 284 284 284 283 283 283 283 283 283 283 284 286 287 289 291 293 294 295 296 297 297 297 297 298 299
321 321 319 317 315 312 313 314 312 310 310 312 312 312 310 310 311 306 300 299 299 300 299 298 297 296 295 295 295 295 295 296 295 293 293 292 292 292 292 292 292 291 291 291 291 291 291 290 290 290 290 289 289 288 288 288 288 288 288 287 287 287 286 286 286 285 285 285 284 284 284 284 284 284 284 283 283 282 282 282 283 283 284 285 286 287 289 292 294 295 296 297 297 296 297 298 298
314 315 315 313 313 312 311 310 310 309 309 311 310 310 310 309 309 308 303 299 299 299 300 299 297 296 296 295 295 295 295 295 294 293 293 292 292 292 292 292 291 291 291 291 291 291 290 290 290 290 290 289 289 288 288 288 287 287 287 287 287 287 286 286 285 285 285 285 284 284 284 283 283 283 283 283 282 282 282 282 283 283 284 284 285 286 287 289 291 294 295 296 296 296 297 297 298
310 312 313 312 312 311 310 309 309 307 308 311 309 309 310 308 308 308 305 301 299 299 299 299 298 296 296 295 295 294 295 294 294 293 292 292 291 292 292 292 291 291 291 291 291 290 290 290 290 290 290 289 289 288 288 287 287 287 287 286 286 286 286 285 285 285 285 284 284 284 283 283 283 282 282 282 282 281 281 282 282 283 283 283 283 284 285 286 288 291 293 295 296 297 298 297 298
310 312 313 313 312 311 309 308 308 307 308 312 311 309 310 309 308 308 306 303 301 300 299 299 298 297 296 296 295 295 295 294 294 293 292 291 291 291 292 292 291 291 291 291 291 290 290 290 290 290 289 289 289 288 288 287 287 286 286 286 285 285 285 285 285 285 284 284 283 283 283 282 282 282 281 281 281 281 281 281 282 282 282 282 282 283 284 285 287 289 292 294 296 297 297 297 297
311 311 312 314 313 313 312 310 310 309 308 312 312 309 309 308 308 307 307 305 303 301 300 300 299 297 297 296 295 295 295 295 295 293 291 291 291 291 291 292 291 291 291 291 290 290 290 290 290 290 289 289 289 288 288 287 287 286 286 285 285 285 285 284 284 284 283 283 283 282 282 282 281 281 281 281 281 281 281 281 281 281 281 281 281 282 283 285 286 288 290 293 295 296 297 297 298
312 311 312 315 313 314 316 314 313 311 309 311 310 308 307 307 307 307 307 305 304 303 301 301 300 299 297 296 296 295 295 295 295 293 291 290 290 290 291 292 292 291 291 291 290 290 290 290 290 290 289 289 289 288 287 287 286 286 286 285 285 284 284 284 283 283 283 282 282 282 281 281 281 281 280 280 280 281 281 280 280 280 280 281 281 281 282 283 285 287 289 292 294 296 297 297 297
318 315 313 315 314 314 314 313 311 312 314 312 307 308 310 309 308 308 307 305 303 303 302 301 301 300 298 297 296 295 295 294 294 293 291 289 289 290 291 292 291 291 291 290 290 290 289 290 290 289 289 289 288 288 287 287 286 286 286 285 285 284 284 284 283 283 283 282 282 282 281 281 281 280 280 280 280 280 280 280 280 280 280 280 280 280 280 281 283 286 290 292 294 295 296 297 297
322 321 314 314 315 313 313 313 312 313 317 311 307 313 317 312 310 309 308 307 305 302 301 301 300 299 298 297 296 295 295 294 293 293 291 289 289 291 292 292 291 291 291 290 290 289 289 289 289 289 289 289 288 287 287 286 286 285 285 284 284 283 283 283 283 283 282 282 281 281 281 281 280 280 280 280 280 280 279 279 279 279 279 279 279 279 279 280 282 284 288 290 292 294 296 297 298
320 319 315 315 314 311 311 312 312 316 317 309 307 313 314 311 311 311 310 309 307 304 302 301 300 299 297 296 296 295 294 294 293 292 291 290 289 291 291 291 291 291 290 290 289 289 289 289 289 289 289 288 288 287 287 286 286 285 285 284 283 283 282 282 282 282 281 281 281 280 280 280 280 280 279 279 280 279 279 279 279 279 278 278 278 278 279 280 281 282 285 288 290 292 294 296 298
322 315 313 314 311 310 310 308 309 313 311 307 308 309 309 309 310 310 308 308 308 305 303 301 299 298 297 296 296 295 294 293 293 293 293 290 289 290 291 291 291 291 290 290 289 289 289 289 289 289 289 288 287 287 286 286 285 285 284 284 283 283 282 282 282 281 281 281 280 280 280 280 279 279 279 279 279 279 279 279 278 278 278 277 277 278 278 278 279 281 283 286 289 291 292 295 297
320 310 308 309 307 308 308 306 308 309 306 309 310 307 309 312 311 310 306 306 309 307 305 304 300 298 297 296 296 294 294 293 292 293 293 290 289 291 291 291 291 291 290 290 289 289 289 289 289 289 288 287 287 286 286 285 285 284 284 283 283 282 282 282 281 281 280 280 280 280 279 279 279 279 279 279 279 279 278 278 278 277 277 277 277 277 277 277 278 279 282 285 289 290 291 292 296
312 308 310 312 312 311 309 307 310 310 309 312 312 308 311 316 315 312 307 308 312 309 306 304 301 299 297 296 295 294 293 292 292 292 290 289 290 291 291 291 291 291 290 289 289 289 289 289 289 288 288 287 286 286 285 285 284 284 283 283 282 282 282 281 281 280 280 279 279 279 279 279 279 279 279 278 278 278 278 278 277 277 277 277 277 277 276 277 277 279 282 286 289 290 290 291 293
308 310 314 316 316 313 311 310 311 314 316 317 314 309 311 316 315 313 312 316 317 313 310 307 303 300 297 296 295 293 292 291 292 292 289 289 291 291 291 291 291 290 290 289 289 289 289 289 288 288 287 286 286 285 285 284 284 283 283 282 282 281 281 281 280 280 279 279 279 279 278 278 278 278 278 278 278 278 277 277 277 277 276 276 276 276 276 276 277 280 282 284 287 289 290 290 291
310 314 316 318 319 317 317 315 313 318 322 320 313 307 308 313 314 312 313 316 314 311 312 311 308 301 297 295 294 293 292 291 291 292 291 289 290 289 290 290 290 290 290 289 289 289 289 289 288 287 287 286 285 285 284 284 283 283 282 282 281 281 280 280 279 279 279 278 278 278 278 278 278 278 277 277 277 277 277 277 276 276 276 276 276 275 275 276 277 279 279 282 285 288 288 289 289
312 313 317 321 322 323 324 319 316 320 322 314 306 306 308 309 311 310 310 312 310 308 307 308 308 302 297 295 294 292 291 290 291 291 292 292 290 288 289 290 290 290 289 289 289 289 288 288 287 286 286 285 285 284 284 283 283 282 281 281 281 280 280 279 279 278 278 278 278 278 277 277 277 277 277 277 277 277 276 276 276 276 276 276 275 275 275 275 276 277 278 281 284 286 286 287 287
309 311 319 324 324 324 326 322 319 320 319 309 302 307 311 311 312 310 308 309 309 306 305 304 304 302 298 295 293 292 291 290 291 291 293 293 290 287 288 290 290 289 289 289 289 288 288 288 286 286 285 285 284 283 283 282 282 281 281 280 280 279 279 278 278 278 278 277 277 277 277 276 276 276 276 276 276 276 276 276 276 275 275 275 275 275 275 275 275 276 278 280 281 283 284 285 286
308 311 317 321 325 327 325 325 322 318 318 311 303 309 316 314 313 311 308 307 305 304 301 299 301 301 298 295 293 292 290 290 291 291 293 292 288 288 289 290 290 289 289 288 288 288 288 287 286 285 285 284 283 283 282 282 281 280 280 279 279 278 278 278 277 277 277 277 276 276 276 276 276 276 276 276 276 276 275 275 275 275 275 275 275 275 275 275 275 275 276 277 279 281 282 283 285
308 309 313 317 321 323 320 320 319 314 313 312 307 311 314 311 308 307 306 303 301 301 298 297 300 299 296 295 292 291 290 290 290 291 293 291 287 288 290 290 289 289 288 288 288 288 287 286 285 284 284 283 283 282 281 281 280 279 279 278 278 277 277 277 276 276 276 276 275 275 275 275 275 275 275 275 275 275 275 275 275 275 275 275 274 274 274 274 274 275 276 277 279 280 281 283 285
310 308 314 314 311 316 318 317 313 309 311 314 312 311 311 310 309 305 301 300 299 300 297 296 298 297 295 294 292 290 290 290 290 291 292 291 287 287 289 289 289 289 288 288 288 287 286 285 284 284 283 282 282 281 280 280 279 278 278 277 277 277 276 276 276 275 275 275 275 274 274 274 275 275 275 275 275 275 275 275 275 274 274 274 274 274 274 274 274 275 276 277 278 279 281 283 284
312 314 313 308 306 311 316 316 313 309 311 315 313 311 310 312 311 303 299 300 302 301 297 295 295 294 294 293 291 291 290 290 290 291 292 291 287 287 289 289 289 288 288 288 287 287 285 284 284 283 282 281 281 280 279 279 278 277 277 276 276 276 275 275 275 274 274 274 274 274 274 274 274 274 274 274 274 274 274 274 274 274 274 274 274 274 274 274 274 275 275 276 276 278 281 282 283
309 312 307 306 311 312 311 313 315 314 313 314 314 313 312 312 314 310 305 304 305 303 296 294 295 294 293 292 291 290 290 290 290 290 292 291 287 286 289 289 288 288 288 288 287 286 285 284 283 282 281 280 280 279 278 277 277 276 276 275 275 275 274 274 274 273 273 273 273 273 273 273 274 274 274 274 274 274 274 274 274 274 274 274 273 273 274 274 274 274 275 276 277 279 281 281 282
302 304 302 305 311 312 312 311 313 315 315 314 315 315 312 314 319 319 312 308 308 305 297 294 295 294 292 292 291 290 289 290 290 290 292 292 287 287 289 289 288 288 287 287 286 285 284 283 282 281 280 279 279 278 277 276 276 275 275 275 274 274 273 273 273 272 272 272 272 273 273 273 273 273 273 273 273 273 273 273 273 273 273 273 273 273 273 273 274 274 275 276 277 278 280 281 282
304 305 305 303 303 307 311 308 307 312 314 313 314 314 313 313 317 318 314 310 309 305 299 295 294 293 292 291 290 290 289 290 290 289 291 292 287 286 288 288 287 287 287 286 285 284 283 282 281 280 279 279 278 277 276 275 275 274 274 274 273 273 272 272 272 272 272 272 272 272 273 273 273 273 273 273 273 273 273 273 273 273 273 273 273 273 273 273 273 274 274 274 275 276 278 280 281
308 308 308 306 304 306 310 309 307 308 310 313 315 314 313 311 311 313 314 312 309 304 299 296 294 293 292 291 290 290 289 289 289 289 291 291 287 286 288 287 287 287 286 285 284 283 282 281 280 279 278 277 277 276 275 274 274 274 273 273 272 272 272 272 272 271 271 272 272 272 272 272 272 273 273 273 273 273 273 273 273 273 273 273 273 273 273 273 273 273 273 274 274 275 277 280 281
Wind_Speed
3 4 4 4 2 1 2 4 2 2 4 3 2 1 1 1 2 2 0 2 2 3 4 5 7 7 8 9 10 9 5 3 1 2 3 4 10 16 17 20 22 22 23 22 19 16 15 14 13 14 13 12 11 12 13 12 12 12 12 12 12 12 13 13 13 13 13 14 15 16 15 15 15 15 14 14 14 13 12 12 12 13 14 13 13 12 11 11 11 12 12 12 13 13 14 14 14
4 4 3 3 2 2 1 3 3 3 5 3 3 1 1 2 2 4 5 1 5 3 5 11 11 12 11 11 9 7 7 4 3 2 2 9 11 16 21 21 23 24 25 24 23 21 19 17 15 15 15 15 14 14 14 13 12 12 13 12 12 12 13 14 12 12 14 15 16 17 17 17 17 16 16 16 16 15 13 13 13 14 14 13 12 12 12 12 12 13 13 13 13 14 16 15 15
4 4 2 3 3 3 1 3 2 1 4 1 4 3 1 1 3 6 6 5 9 9 7 8 8 7 4 6 5 4 3 3 6 1 4 14 10 14 20 20 22 24 25 26 25 25 24 22 20 18 18 17 17 17 16 15 14 13 13 13 13 13 13 14 14 13 14 15 16 18 18 18 18 18 18 18 17 17 16 15 14 14 15 14 14 13 13 13 13 13 13 13 13 15 16 16 15
3 3 1 3 2 4 3 4 2 4 3 2 2 4 1 4 7 6 4 2 4 6 4 5 6 4 4 7 4 3 2 2 6 4 2 11 10 11 18 19 22 24 25 28 27 27 27 25 23 23 22 21 20 19 19 18 17 15 14 14 13 13 14 14 15 15 15 15 15 17 17 17 17 17 18 18 18 18 17 16 15 15 16 16 16 16 15 14 14 15 14 14 14 15 15 15 15
1 2 1 2 2 1 3 3 2 4 2 4 2 4 4 5 7 4 1 4 1 2 4 4 4 1 4 6 1 2 1 2 5 8 4 7 11 13 18 21 22 25 27 28 29 29 28 27 26 25 24 24 23 22 22 21 21 19 18 17 15 14 15 14 15 15 16 16 16 16 16 16 17 17 18 17 17 17 17 16 16 16 17 17 17 17 17 16 16 15 16 15 15 14 14 15 16
1 3 2 3 2 1 2 2 3 2 4 5 3 5 5 6 6 5 5 7 6 5 3 4 6 4 4 3 3 2 2 0 3 6 5 8 15 17 20 22 23 26 27 28 30 30 30 29 28 27 26 26 25 24 24 24 24 23 22 21 19 18 17 16 16 15 16 16 16 16 16 16 17 16 17 17 16 17 17 16 17 17 18 18 19 19 18 18 17 16 16 17 17 16 16 17 17
2 3 3 3 1 2 3 3 4 2 2 5 4 4 5 6 6 7 5 4 6 7 5 5 8 8 4 1 3 4 5 5 4 6 8 12 17 19 20 22 24 26 26 27 28 29 29 29 29 28 27 27 26 26 25 25 25 24 24 23 23 22 21 19 18 17 17 16 16 16 17 17 17 16 16 17 18 19 19 18 19 20 20 21 20 21 20 20 19 19 18 18 19 18 17 17 17
2 1 1 3 2 3 4 3 3 3 1 3 3 4 5 6 6 6 2 2 3 3 4 5 5 7 2 1 4 2 8 9 8 10 12 16 19 20 21 22 24 26 26 26 27 28 28 28 28 28 28 27 26 26 26 26 26 25 24 24 24 23 23 22 21 21 19 19 18 17 17 17 17 16 16 17 18 19 20 21 21 20 21 22 22 21 22 22 21 20 20 19 20 19 19 18 18
3 1 1 3 2 3 3 2 1 2 2 3 2 2 3 4 4 5 4 4 4 4 2 6 2 5 3 5 4 1 5 8 11 14 14 18 19 20 21 23 25 25 25 26 26 27 27 27 27 27 27 27 26 25 25 26 26 25 24 24 23 23 23 23 22 22 21 21 20 19 19 18 18 17 16 16 17 18 19 20 21 21 21 21 22 22 22 22 22 21 20 20 21 21 20 20 20
3 2 1 2 3 3 3 0 0 1 2 3 2 3 3 3 4 5 6 4 3 4 1 2 4 7 7 5 2 0 2 5 11 15 16 18 18 21 22 23 24 24 25 25 26 26 27 27 27 27 26 26 26 25 24 24 25 25 25 24 23 23 23 22 22 22 22 21 21 20 19 19 19 18 18 17 17 17 17 18 20 21 21 21 22 23 22 21 21 21 21 22 22 23 22 22 22
2 3 2 4 4 3 2 3 2 2 3 4 2 4 3 4 6 5 5 5 2 5 4 3 7 8 7 3 2 1 2 6 12 15 16 17 18 20 21 22 23 24 24 24 25 25 26 26 26 27 26 26 26 25 24 24 25 25 25 24 24 23 23 23 22 22 22 22 22 21 20 20 19 20 20 19 18 18 18 18 18 20 21 22 22 23 22 22 22 23 24 24 24 25 25 24 24
2 3 4 4 3 3 4 4 3 2 5 4 1 3 1 5 7 6 6 7 4 5 4 1 6 7 5 2 2 2 6 10 12 14 15 16 18 20 21 21 21 22 23 23 24 25 26 27 27 27 27 27 26 26 25 25 26 26 26 25 25 24 24 23 23 23 23 22 22 21 21 20 19 20 21 21 20 20 20 19 19 19 20 21 22 23 23 23 23 24 26 26 27 28 27 27 27
3 2 5 3 2 3 4 5 3 0 4 2 2 1 2 4 6 8 7 6 3 6 2 2 8 6 4 2 1 1 4 10 12 15 15 16 17 20 20 20 20 21 22 23 24 26 26 27 28 28 28 28 27 27 26 27 27 27 27 27 26 26 25 24 25 25 25 24 23 22 21 21 21 20 21 22 22 22 21 21 21 21 20 20 20 22 23 25 25 25 26 27 28 30 30 29 28
3 3 5 3 1 3 4 4 2 3 1 4 2 1 2 3 3 5 7 6 1 5 0 1 8 5 3 3 0 2 4 9 13 15 16 17 17 18 20 20 20 20 22 23 25 26 26 27 28 29 30 30 29 29 28 28 28 28 28 28 28 27 27 26 26 27 27 26 25 23 22 22 22 22 22 22 23 23 23 23 22 23 22 21 21 21 22 24 25 25 26 28 29 31 32 31 30
4 2 5 4 2 2 3 2 3 5 4 4 1 2 5 2 2 3 5 7 3 2 1 2 4 1 4 7 4 6 9 13 14 16 17 17 17 18 19 20 21 21 22 23 25 25 24 26 27 29 30 30 30 30 29 29 29 29 29 29 29 29 29 28 28 28 28 28 27 26 25 25 24 24 24 25 24 24 25 25 24 24 24 24 23 22 22 23 25 25 26 28 29 31 33 34 32
3 3 5 3 2 2 3 2 4 4 4 4 3 4 6 3 1 3 2 4 3 3 2 1 2 0 5 7 7 12 15 15 15 15 15 15 16 18 18 19 21 21 21 22 25 25 23 24 26 28 29 29 29 29 30 30 30 30 30 30 30 30 30 30 30 30 30 30 29 29 28 29 28 28 27 27 26 26 26 26 26 25 25 25 25 25 24 24 25 25 26 28 30 32 34 35 33
3 4 5 3 2 3 4 4 5 5 4 4 5 3 6 2 2 3 2 6 6 4 4 1 3 3 4 6 12 18 17 15 14 13 12 13 14 17 19 19 20 21 21 21 24 24 23 23 25 27 27 28 28 28 29 30 30 30 31 32 32 32 32 32 32 32 32 32 32 31 31 32 32 32 31 30 29 28 28 27 27 27 26 26 25 25 25 26 26 25 26 28 30 33 34 35 35
5 3 4 1 3 3 5 7 7 5 4 6 6 5 8 5 3 4 4 9 5 6 6 3 5 6 6 11 16 17 15 14 12 12 13 14 14 17 19 19 19 19 19 19 22 23 22 22 23 25 25 26 26 27 28 29 30 30 31 32 33 33 33 33 34 33 33 34 34 33 33 34 34 34 34 33 32 32 31 31 31 30 28 28 27 28 27 27 26 26 27 28 29 31 33 36 38
4 3 3 2 5 3 4 7 6 4 5 6 4 5 6 7 7 5 3 2 3 7 4 3 5 5 6 11 14 14 15 14 12 14 15 14 14 14 14 17 17 16 16 17 20 21 21 21 21 23 24 23 24 25 26 27 28 29 31 32 33 34 34 34 34 33 34 34 34 34 34 34 34 34 34 34 34 34 34 34 33 32 31 31 30 30 29 28 28 28 28 29 29 29 31 35 38
2 4 3 4 6 3 3 6 7 5 6 7 5 4 3 5 7 4 6 6 4 5 5 4 4 6 6 7 11 14 14 13 13 16 16 14 12 11 11 13 14 13 13 13 16 18 18 19 20 21 21 22 23 24 24 25 26 28 29 31 32 33 35 34 34 34 33 33 33 33 33 33 34 34 34 34 35 35 36 36 36 34 33 34 33 32 31 30 29 29 29 30 30 30 30 32 35
1 3 3 5 4 2 5 6 6 5 5 7 6 5 4 5 5 4 9 7 4 7 10 10 13 14 11 8 10 13 13 14 13 14 15 13 11 9 9 9 10 10 10 11 14 16 16 17 18 19 19 21 22 22 22 23 24 26 28 30 31 33 34 34 34 34 33 33 33 33 33 33 34 34 34 35 35 35 36 37 37 35 35 36 35 34 34 33 32 31 31 31 31 31 32 32 33
1 1 2 5 4 2 5 4 4 3 3 4 6 6 5 4 2 6 12 9 6 7 11 12 14 16 13 11 12 12 12 12 12 13 13 12 10 9 9 9 9 9 9 10 13 14 14 15 16 17 18 19 20 21 21 22 23 25 26 28 30 31 33 33 34 34 33 33 33 33 33 34 34 34 35 36 35 35 35 35 36 36 36 36 35 35 35 34 33 32 32 32 32 32 33 33 33
1 3 2 2 3 3 3 2 3 4 5 5 6 4 5 6 1 6 12 9 5 4 7 9 10 15 15 14 12 10 9 10 11 12 12 11 10 9 9 8 8 9 9 10 12 13 13 14 16 16 18 19 20 21 21 22 23 24 24 26 28 30 32 33 33 33 32 32 32 33 33 34 34 35 36 36 36 36 35 35 34 34 35 35 35 35 35 35 34 32 32 33 33 33 33 34 34
3 2 2 1 2 3 3 3 4 6 7 6 5 4 6 7 3 3 8 5 4 1 8 12 13 16 16 13 10 10 10 11 11 11 10 10 9 8 8 7 7 7 8 10 11 11 12 14 15 16 18 19 20 21 21 22 22 22 23 25 26 28 30 30 31 31 30 30 31 32 32 33 33 34 35 36 37 36 36 36 35 35 34 34 34 34 34 35 35 33 33 33 34 33 34 34 34
3 2 2 1 1 4 3 1 2 5 5 2 5 4 5 7 5 5 7 3 2 5 11 12 13 13 12 10 9 9 10 11 11 10 9 8 8 8 7 7 7 6 8 10 10 10 12 13 14 15 16 18 19 21 20 21 21 22 23 24 25 27 29 29 28 28 28 28 29 30 31 32 33 33 34 35 36 36 36 36 36 36 35 34 34 34 34 35 35 34 35 35 34 34 34 35 34
2 2 2 1 2 4 2 1 4 5 2 3 5 3 4 3 3 4 6 5 5 8 10 10 11 10 9 9 9 9 9 10 12 10 9 8 7 8 7 6 6 6 7 9 9 10 11 12 13 14 14 16 18 19 19 20 21 22 22 23 24 26 27 27 27 27 27 27 28 29 29 30 31 32 34 34 35 35 36 36 36 37 37 36 34 34 34 34 34 35 35 35 34 34 35 35 35
3 2 4 4 3 3 2 5 7 4 2 3 6 3 4 1 1 4 5 7 7 9 10 8 9 9 9 8 8 10 10 12 14 12 10 7 7 8 8 7 6 7 7 7 8 9 10 11 11 12 14 16 17 18 19 19 21 21 21 22 23 25 26 26 26 26 26 26 27 27 28 28 30 31 33 34 34 34 35 35 36 36 37 36 35 36 35 34 34 34 34 34 34 33 34 35 34
1 1 5 6 5 4 2 5 6 3 2 4 6 0 2 0 2 6 8 9 9 11 10 8 9 8 8 8 7 9 11 14 16 13 11 9 9 9 9 8 8 7 6 6 6 8 9 9 10 11 14 16 17 18 18 19 21 21 21 21 22 24 25 25 26 26 26 25 25 25 26 28 29 30 30 31 32 32 33 33 34 34 35 36 36 36 37 36 35 34 33 34 34 33 33 33 32
1 4 4 8 8 6 3 3 4 3 3 4 6 1 3 5 7 5 10 11 8 10 11 9 9 8 7 8 6 6 11 15 15 14 14 11 10 9 9 7 7 8 6 5 5 7 8 9 10 12 15 16 17 17 17 19 20 20 21 21 23 25 26 26 26 26 26 26 26 26 27 29 30 31 30 30 31 31 32 32 33 33 33 34 35 37 38 38 36 35 34 34 34 34 33 32 32
1 4 2 5 8 6 4 1 1 3 4 4 4 3 6 10 10 4 10 12 11 10 11 10 8 7 7 7 6 7 10 13 14 16 15 12 11 10 9 7 7 7 5 4 4 6 8 8 9 12 15 16 16 16 17 18 19 20 21 22 25 26 27 27 27 27 28 27 27 27 28 30 31 31 31 30 30 31 31 32 33 33 33 33 34 36 38 38 37 36 35 34 34 33 33 33 31
1 2 2 3 4 4 6 2 3 4 3 3 4 4 8 10 9 6 10 13 14 13 12 11 9 8 8 7 7 7 9 13 16 17 15 13 13 11 10 8 7 6 4 4 4 6 6 7 9 12 14 14 15 15 17 18 19 21 22 24 26 27 28 29 29 29 30 30 30 30 30 31 31 31 29 29 30 31 32 31 31 32 33 34 35 35 36 37 37 37 35 34 34 32 32 33 32
3 2 3 3 1 5 9 4 5 4 1 3 5 4 9 9 7 7 11 12 14 14 12 12 11 10 9 8 8 7 8 14 17 16 15 14 14 13 11 9 7 6 6 5 5 5 5 6 10 12 13 13 14 16 17 18 19 21 23 26 27 28 29 30 30 30 31 31 32 33 33 33 33 32 31 32 33 33 32 31 30 30 31 33 34 34 34 35 36 37 37 33 33 33 32 33 33
4 1 2 4 2 4 7 4 2 2 0 2 4 4 7 8 4 3 10 12 12 11 11 12 12 11 10 9 8 7 7 10 12 14 16 16 15 14 11 9 8 7 7 6 5 4 4 6 10 12 12 13 15 16 17 17 19 22 25 28 29 29 30 30 30 30 31 32 32 32 33 34 34 35 36 36 35 33 33 32 33 32 32 31 32 33 33 33 34 36 38 35 32 32 32 32 33
4 3 1 4 3 3 5 5 4 1 2 4 5 5 11 11 3 3 9 12 12 11 12 13 12 10 10 9 8 8 9 8 8 14 18 17 16 14 11 8 7 7 7 6 4 4 3 7 10 10 11 12 15 17 17 18 21 24 27 28 29 29 30 30 30 30 31 31 31 32 34 35 36 37 38 38 36 34 33 33 34 34 34 32 32 33 33 34 34 34 36 36 34 32 32 32 32
3 3 2 4 3 4 6 6 4 2 2 5 4 6 14 16 8 4 9 10 13 14 13 12 11 11 10 9 9 8 9 8 10 17 21 19 17 14 11 8 7 6 5 4 3 3 3 7 9 9 10 13 15 18 18 20 23 26 27 28 29 30 30 30 29 30 30 31 32 33 34 35 36 37 38 39 38 37 35 34 35 35 34 33 33 34 33 33 33 33 33 34 36 36 34 32 32
6 5 4 4 5 6 7 6 4 2 3 7 7 8 13 16 14 7 8 10 13 14 11 9 9 10 10 9 9 9 10 9 13 20 23 21 19 15 11 9 7 6 4 3 2 1 4 7 8 8 10 13 16 19 20 23 25 27 28 30 30 32 31 30 30 31 32 33 33 34 35 35 35 36 37 38 38 38 36 35 34 33 32 33 35 36 35 34 34 34 33 33 36 38 37 33 30
4 3 4 5 5 7 8 4 4 1 2 8 8 8 12 15 17 12 8 10 11 12 12 10 10 11 11 12 12 11 10 9 15 22 23 22 19 15 11 9 7 6 4 2 1 1 5 7 8 8 10 13 17 20 22 24 25 26 27 27 28 29 30 30 32 33 33 33 33 34 35 35 35 35 36 37 36 36 34 32 32 32 33 33 35 36 37 37 36 36 36 35 35 35 35 33 28
2 3 4 5 5 8 9 4 5 2 3 7 5 6 11 13 17 14 7 10 13 15 16 15 14 13 12 13 14 11 8 7 12 17 20 22 19 15 12 9 7 6 4 3 0 2 5 7 7 8 10 14 18 21 23 24 24 24 24 24 25 26 28 28 29 30 29 28 29 31 32 33 33 34 35 36 36 35 34 33 33 33 34 34 35 36 36 37 36 36 35 34 33 32 33 34 29
3 2 2 4 4 4 8 4 5 2 2 6 6 6 11 12 17 18 9 11 14 16 18 17 16 16 14 14 13 12 10 9 10 12 17 21 19 16 13 8 7 5 4 3 1 4 6 7 7 9 12 15 19 21 23 23 23 23 23 24 25 26 26 26 26 26 25 25 27 29 29 30 32 33 34 36 37 37 36 36 36 35 34 33 34 36 36 36 35 35 34 33 32 31 33 35 30
4 3 2 5 4 1 5 4 5 4 2 6 9 9 9 10 15 19 12 10 12 13 15 14 13 15 15 14 13 13 14 13 11 11 12 17 19 16 12 9 7 6 5 3 2 5 7 8 8 10 13 16 19 21 22 22 22 24 25 26 27 26 26 26 25 24 23 25 28 29 30 31 32 33 34 34 34 35 35 36 37 36 35 33 33 34 36 36 35 35 35 33 32 29 29 32 30
4 6 6 6 6 5 6 4 5 6 4 4 9 9 7 7 12 14 6 3 9 10 9 11 11 11 10 10 11 13 14 13 12 12 10 12 17 16 12 9 8 8 6 3 2 5 7 7 8 10 13 16 19 21 22 22 23 25 28 29 30 28 28 28 27 28 29 30 33 34 35 35 34 34 33 33 33 33 33 34 35 37 37 35 34 35 36 36 35 34 33 32 32 31 29 30 29
5 5 9 9 8 7 5 5 6 5 4 3 7 7 6 3 6 10 5 3 8 6 7 12 12 9 8 10 12 12 11 10 11 12 11 12 16 16 13 11 10 10 7 3 3 5 7 7 8 10 13 16 19 20 21 22 23 25 27 27 27 26 26 26 26 29 33 34 35 36 37 37 36 36 35 35 35 34 34 34 34 35 37 36 36 36 36 35 34 33 32 33 35 35 34 30 29
4 4 6 7 4 2 2 4 4 1 3 2 4 2 8 3 3 10 8 7 11 7 8 13 11 9 11 12 12 11 11 10 8 9 11 12 14 16 14 13 12 11 8 3 3 5 6 6 8 10 13 16 18 20 21 22 23 24 25 24 23 23 23 25 25 27 31 33 35 37 37 37 36 37 37 37 36 36 36 35 34 34 36 36 36 35 35 35 35 35 35 36 37 37 37 33 30
3 4 4 5 4 1 2 3 1 3 3 4 3 4 8 8 5 9 8 8 13 11 11 12 10 11 14 13 11 11 13 11 8 9 10 11 14 16 16 15 13 11 8 4 3 5 6 6 8 10 13 16 19 20 20 21 22 23 24 24 24 24 24 27 29 29 31 34 36 39 39 39 38 37 37 37 37 36 36 36 36 36 36 36 35 35 36 37 38 38 36 37 38 37 38 36 32
5 4 4 5 4 3 3 3 1 2 3 6 5 7 4 9 5 3 3 4 12 14 15 14 12 14 14 12 11 12 12 10 9 10 10 11 16 18 17 14 12 12 9 4 4 5 6 6 8 11 13 17 19 19 19 20 22 22 23 24 25 26 26 28 30 32 34 35 36 38 39 40 40 39 38 36 35 35 35 36 38 38 37 36 36 37 38 38 38 39 38 37 37 36 37 38 35
3 4 4 4 5 4 3 3 1 2 2 9 7 7 4 8 4 2 2 3 10 12 12 12 11 13 12 10 11 11 10 9 9 10 11 14 18 18 16 13 12 11 9 5 5 6 6 6 8 11 15 18 18 18 19 21 22 22 23 24 25 27 27 28 30 32 34 35 36 38 39 39 40 40 39 37 36 36 36 37 37 37 38 37 36 37 38 38 39 38 36 34 34 35 36 37 37
2 5 4 5 5 4 4 2 3 3 4 10 8 11 8 6 3 6 4 5 7 8 8 8 7 9 9 10 11 12 10 9 9 9 10 15 18 17 14 13 12 11 8 6 6 6 6 7 8 12 16 17 17 18 18 20 21 21 22 23 24 26 27 28 29 31 33 34 36 38 38 39 39 40 40 40 40 38 37 37 37 37 38 37 36 37 37 37 36 34 33 32 33 35 34 33 36
4 4 4 4 4 4 4 4 4 1 6 7 4 8 9 8 6 5 5 6 6 6 7 8 8 9 10 10 11 11 10 9 9 8 9 12 13 12 13 13 12 11 9 7 6 6 6 7 8 13 17 17 17 18 18 19 20 21 22 23 24 26 26 27 28 31 32 32 34 36 37 38 40 42 42 43 43 41 38 38 38 37 37 36 36 36 37 35 34 34 35 35 34 33 32 31 33
4 4 4 3 4 4 3 3 0 3 7 4 2 4 5 11 10 9 10 11 10 9 9 10 9 8 10 11 11 10 9 9 10 9 8 8 8 10 13 14 13 12 10 7 7 7 7 7 9 13 17 18 17 18 19 19 20 21 23 23 25 26 26 27 28 30 31 31 32 35 37 39 42 44 44 45 45 44 42 40 39 38 37 37 37 37 37 36 35 35 35 34 33 31 30 31 32
4 4 4 3 1 1 4 4 3 5 6 3 4 3 5 9 8 12 16 16 13 9 8 9 7 8 11 11 11 9 9 10 10 9 8 7 8 11 14 14 14 12 10 8 8 8 7 8 10 14 17 18 18 19 19 20 20 22 23 24 25 26 26 27 27 29 31 32 33 36 38 40 42 45 45 46 47 46 45 43 41 40 39 38 38 37 37 36 35 34 34 34 34 34 34 35 34
4 4 4 5 5 3 4 4 4 6 7 4 3 3 4 4 3 7 11 10 7 5 6 6 6 7 8 8 9 9 10 10 8 9 8 7 10 14 15 15 14 12 10 9 8 8 7 8 12 15 18 19 19 19 19 20 21 23 23 24 25 25 26 27 27 28 30 33 35 37 39 40 41 45 47 47 47 47 47 46 43 41 40 39 38 37 37 36 36 36 38 39 39 38 37 37 36
2 3 4 3 5 5 3 4 4 1 6 6 3 4 6 4 4 6 5 5 4 4 5 3 5 6 6 7 9 10 10 10 9 9 8 8 11 15 15 16 15 12 10 9 8 7 7 10 13 15 17 18 19 19 20 21 22 23 24 25 25 25 26 27 29 30 31 33 35 37 40 41 42 44 46 47 47 48 47 46 44 42 41 40 38 37 37 38 38 38 39 39 38 37 36 36 36
2 2 3 4 4 5 2 4 2 4 3 6 3 6 8 6 7 6 4 3 6 5 5 3 5 5 7 8 9 10 11 10 10 9 8 8 11 13 16 16 14 11 10 9 7 6 8 11 13 15 17 18 19 20 21 23 23 24 24 24 25 26 26 28 29 31 33 34 35 37 39 42 43 43 45 47 48 48 47 45 43 43 42 40 38 37 38 38 38 37 37 37 38 38 36 36 35
5 3 5 3 2 4 3 1 3 3 3 6 4 9 12 6 6 4 2 2 9 8 5 4 4 6 8 9 9 10 11 10 9 8 8 8 10 14 17 16 13 10 8 8 6 6 10 12 13 15 17 18 20 22 23 23 23 24 25 25 25 26 27 29 30 32 33 35 37 38 38 41 42 43 44 46 47 47 47 44 42 42 41 40 38 37 37 37 36 37 39 39 39 38 36 36 36
5 3 3 2 3 1 2 2 2 1 3 7 5 8 14 9 6 7 4 7 10 9 5 5 6 9 10 9 9 10 9 9 9 8 8 7 9 13 16 15 12 9 7 7 6 7 11 12 13 14 16 19 21 22 22 22 23 24 25 26 26 27 28 29 30 32 34 35 37 38 39 40 42 42 43 44 45 46 46 44 41 41 41 40 39 37 37 37 37 38 38 37 36 34 34 35 36
2 0 1 1 3 4 3 3 3 3 3 7 5 8 14 9 6 8 8 9 10 9 7 8 11 12 11 9 10 10 11 11 9 9 8 7 9 14 15 13 11 8 7 7 6 9 12 13 13 15 18 21 21 22 22 23 24 25 26 27 28 28 29 30 30 32 33 35 36 37 38 39 41 42 42 43 44 43 44 43 42 41 41 40 39 37 37 37 36 36 36 35 34 31 31 32 33
3 2 2 2 1 2 1 2 2 3 4 5 3 8 15 6 5 7 8 8 10 10 9 10 12 12 11 10 10 11 12 11 9 8 8 7 9 13 14 11 9 8 7 6 6 10 11 12 14 17 19 21 22 22 22 24 25 26 27 28 29 30 30 31 31 32 32 34 35 35 37 38 40 42 41 41 42 42 42 42 41 40 40 39 39 38 38 38 37 38 37 35 34 31 30 30 30
6 6 7 7 5 3 1 4 3 3 4 5 3 8 17 7 4 5 6 7 9 9 10 10 11 12 11 10 12 13 12 11 10 9 8 7 8 12 12 10 9 8 6 5 7 10 11 13 15 17 18 19 21 22 23 24 25 26 27 28 30 30 31 31 32 33 33 33 34 35 36 38 39 40 40 39 39 39 39 39 39 39 38 37 37 38 38 38 38 38 37 33 31 30 30 29 27
Wind_Direction
139 142 127 136 121 93 30 64 60 341 70 75 330 54 150 240 189 152 210 286 63 20 16 65 57 75 94 108 120 111 77 75 128 117 149 324 29 41 39 41 42 47 45 44 41 38 37 33 35 34 28 21 10 4 358 352 345 335 335 327 318 309 302 299 293 290 289 290 289 287 285 282 281 279 277 274 271 269 272 276 281 284 286 290 294 293 289 292 292 290 289 289 288 288 281 271 268
133 145 107 126 87 98 206 67 86 348 51 66 298 148 261 338 94 169 200 178 108 130 87 81 74 78 98 119 123 89 53 37 16 111 77 15 46 48 40 44 43 46 47 48 47 45 41 35 33 32 31 27 22 18 16 11 4 354 350 342 335 328 317 316 310 296 290 291 290 290 288 285 283 281 279 276 275 273 272 273 276 280 284 288 286 285 286 287 287 288 287 287 288 287 284 276 267
123 150 103 127 61 50 86 39 90 55 68 107 277 259 314 84 176 204 202 114 121 145 107 81 75 60 82 91 58 54 53 28 20 21 28 25 36 30 35 46 46 49 50 50 49 49 48 44 41 37 34 30 27 24 23 22 19 12 6 2 353 344 336 332 330 320 308 301 296 294 291 289 286 283 279 276 280 282 280 277 279 285 288 287 283 282 282 283 282 284 282 283 285 284 285 283 273
132 153 150 145 64 29 62 43 125 115 108 184 253 265 257 174 195 217 229 112 155 165 107 68 64 11 59 81 46 54 44 341 9 17 48 25 26 25 39 50 53 57 54 52 52 52 52 50 50 46 42 37 35 31 28 27 24 20 17 14 8 1 355 348 344 340 332 323 312 301 294 291 287 286 282 276 278 283 284 281 281 283 285 284 284 285 283 282 280 280 279 278 280 282 288 290 282
159 159 164 137 94 53 92 74 111 99 167 185 151 256 248 199 203 208 341 15 343 143 126 96 94 295 64 72 44 93 330 278 9 36 78 31 40 48 52 57 59 60 57 56 55 56 55 53 54 51 48 43 39 37 33 31 27 25 22 18 14 9 4 0 355 349 345 341 335 321 308 302 295 291 286 278 278 282 282 278 279 279 279 281 282 284 285 284 281 279 278 276 274 274 278 279 280
107 120 71 70 92 125 108 106 118 104 212 169 143 241 231 207 202 153 79 42 36 59 96 96 122 138 81 66 67 101 287 163 46 36 64 49 55 60 61 62 62 61 58 58 57 57 56 55 55 54 51 47 43 41 38 35 31 29 27 24 20 16 11 8 3 358 353 349 347 339 330 324 314 304 293 284 282 284 283 279 279 277 276 278 279 281 283 285 284 280 277 277 273 269 267 265 268
130 124 33 63 48 36 100 134 158 172 198 168 166 198 206 219 191 136 116 83 50 29 44 96 126 113 84 143 78 41 36 72 92 63 75 67 63 65 65 64 63 62 58 57 57 55 55 55 54 53 52 49 47 44 42 38 33 31 29 27 25 23 20 16 12 9 4 358 354 349 342 338 332 323 310 298 292 288 287 285 283 281 278 276 277 279 282 285 284 282 278 277 276 273 269 268 266
123 154 17 96 40 27 96 123 170 176 167 206 198 179 200 212 174 130 123 113 99 47 86 137 131 93 42 101 104 38 56 76 92 84 84 73 66 66 65 64 62 59 56 55 53 51 50 50 50 50 49 47 46 45 44 41 36 33 31 28 26 24 22 21 19 16 13 9 3 359 352 347 342 335 326 317 310 302 293 288 284 282 281 279 277 278 282 284 283 283 281 278 277 278 275 272 269
74 64 14 94 71 48 66 71 145 205 253 262 238 211 223 191 144 113 84 59 113 109 133 201 169 99 115 83 104 250 61 85 94 87 82 74 68 67 64 62 59 56 55 51 49 47 46 45 45 45 44 43 41 41 42 40 37 35 33 30 28 25 22 21 19 18 16 15 10 6 1 357 353 345 338 330 323 315 306 298 291 285 284 284 283 282 282 283 282 282 281 279 277 277 277 274 273
68 26 133 86 76 70 42 65 263 235 257 284 262 250 239 167 111 98 104 95 121 101 96 219 90 119 135 110 121 16 53 100 97 85 80 79 73 69 66 62 59 56 53 50 47 44 43 41 40 39 38 38 37 36 37 36 34 32 31 29 28 26 24 21 19 16 15 14 11 8 4 1 358 353 349 342 334 326 319 311 303 297 293 290 286 285 284 283 283 283 282 280 279 277 276 274 273
63 349 91 79 76 109 172 195 260 257 285 322 308 271 226 143 103 76 98 116 109 118 152 78 93 134 120 115 185 110 105 108 95 86 83 85 78 71 68 64 60 56 52 48 45 43 41 38 36 35 34 34 34 33 33 33 31 29 28 26 26 24 24 22 20 17 15 12 9 7 4 2 360 357 354 348 343 337 332 323 314 306 301 296 288 284 284 284 284 286 285 280 278 277 277 275 272
94 335 67 84 118 170 186 165 209 250 313 339 31 305 126 111 108 113 119 122 118 146 186 138 145 150 97 126 208 121 104 103 96 91 92 91 81 73 69 66 61 56 52 48 45 42 39 36 34 33 32 32 33 32 32 32 30 29 27 25 24 22 21 20 19 16 14 12 9 8 5 3 1 359 358 355 350 344 339 334 327 317 308 302 293 287 284 284 285 286 287 283 280 276 274 273 272
116 146 84 87 140 142 143 136 187 217 337 291 172 285 85 81 117 144 134 112 125 154 209 195 155 127 95 191 221 136 110 107 104 99 100 95 85 77 72 68 63 57 52 47 43 39 37 34 33 32 32 32 32 33 32 31 30 28 27 26 25 22 20 18 17 15 12 11 9 8 7 6 4 1 0 359 357 352 347 342 337 330 322 312 302 296 290 287 287 286 286 286 283 280 274 271 272
134 157 102 110 81 116 138 123 174 136 229 250 233 277 57 67 134 154 127 109 166 164 144 97 139 107 101 172 109 217 166 126 114 107 104 97 90 81 74 69 64 57 50 46 41 37 35 33 32 31 31 31 31 32 31 31 29 28 26 25 24 22 20 17 14 13 12 11 9 8 7 5 5 4 2 359 357 355 352 348 343 339 333 325 314 305 297 292 289 285 285 286 284 282 276 272 272
137 139 90 108 35 79 153 145 157 138 190 234 217 117 75 52 138 127 126 136 195 210 35 60 113 131 164 165 190 200 164 139 126 115 107 98 92 82 75 68 62 56 50 45 40 38 35 32 31 30 29 29 29 30 30 29 28 27 26 24 23 20 18 16 13 11 10 10 9 8 6 3 1 0 360 358 357 355 353 350 346 343 339 334 327 318 309 301 294 289 285 284 283 281 277 272 270
120 109 71 90 71 119 163 151 138 139 209 217 183 125 87 341 56 108 264 150 143 3 17 30 350 281 164 172 169 159 151 141 133 124 114 100 90 80 73 67 61 55 50 43 38 38 38 35 32 29 27 27 27 28 28 27 27 25 25 23 21 20 17 15 12 10 9 8 7 6 4 2 0 358 357 355 354 355 353 351 348 345 340 337 333 328 322 313 307 299 289 283 281 280 278 272 268
65 80 67 73 132 164 176 165 167 168 218 214 210 167 107 302 347 124 344 59 97 41 41 12 345 40 112 138 139 143 148 146 137 127 113 98 84 72 62 58 56 51 48 43 37 37 40 38 34 30 27 26 26 26 24 24 24 24 23 21 20 18 16 13 11 11 9 8 7 5 3 1 360 358 357 355 352 350 349 347 346 344 341 336 332 329 326 320 315 308 299 290 284 280 279 274 268
54 81 87 105 168 173 174 178 193 170 179 196 205 173 132 167 208 159 58 48 73 67 42 26 37 40 82 119 131 141 148 148 140 120 100 83 71 63 54 48 50 49 47 43 37 38 40 39 36 32 29 29 28 26 24 23 22 22 20 19 17 15 13 11 10 10 10 9 7 5 3 0 358 356 355 355 351 348 345 343 343 343 341 337 333 331 327 323 319 314 308 301 293 285 280 275 270
81 112 90 210 197 189 188 175 185 172 170 183 189 175 161 174 170 153 110 112 131 92 43 15 62 61 94 123 134 140 142 139 127 109 93 76 68 64 57 49 49 48 47 44 38 39 40 40 36 32 30 29 28 27 24 24 23 22 20 17 15 12 11 9 8 9 9 8 7 4 2 358 356 354 353 352 350 348 345 343 342 342 340 337 336 333 330 327 323 319 314 308 303 296 285 278 272
137 111 79 240 210 201 222 178 192 211 177 163 169 184 199 178 160 148 138 162 191 153 159 149 156 171 152 153 146 140 137 131 119 105 94 85 75 69 68 58 51 51 53 50 42 42 43 41 37 33 31 28 25 25 23 23 23 22 20 17 14 11 10 9 9 8 7 6 5 3 0 357 355 352 351 349 348 346 344 343 343 342 339 337 337 336 333 330 327 323 320 314 311 307 299 290 279
119 108 151 218 175 166 218 191 203 214 175 164 148 144 176 177 159 147 139 147 236 220 198 182 177 175 168 174 160 145 138 130 124 113 106 101 90 83 88 80 64 60 63 58 48 47 49 45 40 37 34 29 26 26 26 24 23 21 19 15 12 10 9 9 9 7 5 4 2 1 358 356 354 351 350 348 346 344 342 341 341 341 338 337 337 336 335 333 330 327 325 321 317 315 309 301 289
53 329 184 188 136 154 229 204 196 165 134 146 134 146 167 154 153 165 159 172 223 222 208 194 172 165 163 164 160 150 140 135 133 129 126 125 116 104 101 97 77 67 70 60 50 51 54 51 44 40 35 31 31 31 29 26 23 20 18 13 10 9 8 8 8 6 4 2 0 359 356 355 353 350 348 346 345 342 340 338 337 336 335 335 335 334 334 334 333 330 327 323 320 316 311 306 297
35 316 345 209 179 179 219 191 194 144 127 169 169 168 136 127 202 194 185 201 257 253 180 168 156 154 152 150 152 150 146 146 143 143 144 144 136 115 108 105 81 71 72 58 54 56 54 48 42 39 35 33 32 30 27 24 22 20 17 13 10 8 6 7 7 5 4 2 0 358 356 354 351 349 347 345 343 340 337 335 333 332 331 330 331 331 331 332 332 330 326 323 320 316 312 308 303
86 292 322 260 227 216 204 165 177 157 164 198 166 132 144 168 194 176 211 239 335 354 128 133 140 144 146 145 152 153 151 150 145 144 144 144 142 127 117 113 91 79 75 59 56 57 48 41 39 38 36 32 29 26 24 23 21 20 16 13 11 8 6 7 6 4 3 2 0 358 355 352 350 347 345 343 340 338 335 333 330 328 326 325 325 326 327 328 329 328 326 323 320 316 312 309 305
83 255 291 43 289 272 275 103 169 181 185 165 118 149 199 199 171 159 218 234 90 128 120 127 136 139 148 152 157 157 154 152 147 142 138 137 146 146 134 118 102 90 78 61 55 51 43 37 38 39 35 30 24 22 23 23 21 19 15 13 11 7 6 6 5 5 3 2 0 358 355 351 348 345 342 340 337 335 333 331 328 326 324 322 321 321 322 324 324 324 324 323 320 316 312 309 307
205 233 288 292 293 300 300 181 221 222 202 112 136 221 268 213 170 192 208 174 151 135 124 135 138 143 158 157 164 165 164 165 160 154 146 137 141 154 147 129 116 105 82 63 56 48 42 39 41 42 35 27 22 21 23 23 21 18 16 14 10 6 6 5 6 6 5 4 1 358 355 350 346 342 339 336 334 331 329 327 325 323 321 319 317 316 317 318 319 320 320 321 319 316 311 309 307
213 237 273 271 290 300 212 198 234 233 226 183 169 239 281 240 231 242 206 165 159 134 131 148 144 157 166 162 175 172 175 176 171 165 162 160 150 154 154 145 138 123 94 74 64 49 44 44 46 44 34 26 22 21 22 23 21 18 17 14 10 6 6 6 7 7 6 5 1 356 353 348 342 338 335 332 330 327 325 323 321 319 317 316 315 312 313 313 313 315 316 317 317 315 310 308 306
213 310 299 300 325 312 221 211 240 196 195 179 139 121 287 313 278 226 183 163 162 144 147 164 159 168 170 170 179 176 182 180 176 173 172 173 157 153 156 150 146 136 107 87 71 49 44 47 50 42 30 24 21 20 21 21 19 18 18 15 10 7 7 7 7 6 4 0 357 353 348 344 341 338 335 332 330 327 324 322 320 318 314 312 312 310 310 308 308 310 311 313 314 313 310 307 305
34 45 335 311 351 346 294 239 231 175 196 169 126 334 262 213 238 211 158 156 155 149 159 174 175 177 177 179 178 182 189 182 180 180 173 161 146 145 148 146 148 146 118 84 67 44 41 48 48 35 27 23 19 19 20 18 16 17 18 15 10 8 8 6 4 2 358 355 354 351 348 347 345 344 341 338 335 331 327 324 321 319 315 311 310 310 308 306 305 306 308 310 311 312 310 308 307
326 49 42 321 356 341 300 325 160 156 191 173 137 278 255 224 233 194 149 155 148 159 177 181 185 185 184 185 182 193 194 186 185 182 173 156 142 137 135 138 146 147 119 76 59 39 43 51 42 30 25 22 20 20 17 15 15 17 17 14 10 8 7 4 1 357 354 354 353 351 349 349 348 347 346 342 337 332 327 324 321 319 317 313 309 309 308 305 302 302 305 307 307 309 308 307 307
349 11 49 7 354 290 292 327 134 152 200 151 120 256 260 252 246 186 160 162 159 175 190 185 191 191 189 190 188 198 198 192 189 180 172 157 143 138 137 137 139 140 110 81 54 39 52 54 35 26 24 22 21 17 12 12 14 16 16 13 9 6 4 1 359 356 354 353 351 351 350 349 349 348 346 339 333 330 327 323 320 318 317 315 311 308 306 304 301 299 301 303 303 305 305 305 305
30 348 317 345 341 279 301 292 171 174 258 114 131 241 268 272 263 185 164 170 173 183 191 190 195 192 190 194 192 197 202 198 190 177 168 159 148 143 142 135 129 121 95 78 53 49 68 52 27 22 24 22 19 12 9 11 13 15 14 11 8 4 1 359 357 355 353 352 351 351 350 349 348 346 343 338 333 331 329 325 321 318 316 314 311 309 306 302 300 298 297 297 299 301 301 301 302
4 48 259 283 288 303 317 313 221 217 126 150 185 241 274 277 294 163 166 177 185 192 196 196 199 197 192 195 195 194 198 203 196 184 173 162 155 148 140 131 120 102 84 69 51 66 79 37 19 19 23 20 16 9 6 9 11 13 12 8 5 1 358 357 355 353 352 351 350 349 348 348 346 345 342 339 336 331 327 323 321 321 318 313 311 309 306 302 299 296 294 293 293 296 297 297 300
322 18 259 255 246 269 301 308 319 9 166 223 226 241 260 266 307 132 179 182 189 201 204 203 202 199 198 196 197 198 195 199 200 190 180 169 162 154 141 130 115 96 83 67 59 89 69 18 14 19 21 17 11 5 5 7 9 10 9 6 2 358 355 354 352 351 350 348 348 347 346 345 344 343 342 339 336 330 325 322 320 322 321 316 311 308 306 303 299 294 291 290 290 292 292 293 296
238 274 284 288 264 226 246 269 305 18 227 235 223 244 261 270 277 197 191 190 198 210 209 206 204 199 202 200 198 203 198 198 200 189 181 175 167 158 145 129 115 109 96 75 81 97 33 8 12 19 17 13 6 3 4 4 7 8 6 3 359 355 352 351 350 348 347 347 346 345 343 342 341 341 340 338 335 330 326 323 322 323 323 319 314 310 307 305 302 296 290 288 290 291 288 288 292
197 226 221 259 275 259 246 242 264 312 281 258 235 243 264 274 275 239 194 197 206 219 219 208 206 203 204 205 203 204 200 201 199 188 181 179 172 162 148 133 127 128 116 93 106 73 9 5 10 16 12 7 2 1 3 3 5 4 2 0 355 352 349 347 347 346 346 345 344 342 340 339 338 337 337 336 334 330 325 322 321 321 319 317 313 310 307 305 303 298 293 289 290 289 286 286 288
183 208 221 242 244 272 275 253 278 279 234 264 242 238 260 268 273 260 197 198 215 222 227 216 206 207 206 206 207 203 202 203 196 189 185 183 176 165 151 140 143 143 140 136 123 353 358 3 5 10 6 1 360 0 2 3 4 1 359 357 350 347 345 344 344 344 343 342 340 338 336 336 334 333 333 333 331 327 322 319 317 315 315 314 310 306 303 301 301 299 294 290 287 283 283 284 284
197 214 241 268 224 255 279 284 308 300 182 265 250 236 258 260 272 270 183 184 220 217 219 220 208 209 210 207 207 203 202 201 195 192 190 188 181 172 160 148 155 157 157 171 183 342 354 360 359 1 358 357 358 358 360 1 0 357 354 350 346 343 342 342 340 338 338 336 335 333 332 331 330 329 328 329 328 325 322 318 316 314 314 313 310 307 303 301 300 299 295 290 285 279 278 281 281
186 191 216 274 239 263 292 305 334 348 159 269 276 263 264 260 268 269 222 195 224 219 214 218 208 207 210 206 204 198 198 199 193 194 193 192 187 178 167 157 167 174 173 190 281 342 353 355 352 353 353 354 355 356 357 357 354 352 349 347 345 341 339 339 334 333 333 331 329 328 327 326 325 325 325 326 326 325 323 318 315 314 313 313 311 308 306 302 300 299 295 290 286 281 277 277 276
187 180 194 262 263 277 283 298 334 325 246 270 288 280 265 260 262 267 250 211 228 230 221 223 213 211 212 206 202 196 196 196 189 192 193 193 194 184 167 164 180 187 192 211 309 342 350 351 345 347 349 351 353 354 354 351 348 346 346 346 344 341 337 335 331 330 329 326 326 326 325 324 323 323 323 323 322 320 319 317 315 313 312 311 310 307 304 301 299 298 295 289 286 283 277 275 273
242 203 205 241 259 232 234 285 331 325 310 312 319 300 261 238 246 261 282 239 245 240 225 231 224 219 213 203 208 204 199 194 186 189 188 191 197 186 168 174 192 196 201 224 317 343 345 344 339 341 345 348 350 351 349 347 344 344 345 345 344 342 337 335 333 331 329 327 326 326 325 324 322 320 320 319 317 316 316 315 313 311 310 309 307 304 302 299 296 294 292 290 286 282 276 273 273
295 230 211 225 244 246 263 326 348 350 331 353 10 327 272 222 238 259 290 295 260 235 217 232 225 212 204 203 208 204 203 200 189 187 183 189 191 179 174 187 199 202 204 224 316 338 337 333 334 337 342 346 347 347 346 344 342 343 345 343 340 337 332 330 329 327 325 324 323 322 321 321 320 319 318 318 317 315 314 313 312 309 307 307 305 303 300 297 295 291 289 291 290 286 279 272 270
304 249 200 203 210 240 303 3 10 335 274 295 64 319 274 269 222 254 263 265 264 246 226 235 226 209 208 211 207 195 199 200 190 184 180 187 183 175 184 197 201 205 204 221 307 327 326 324 331 335 337 342 343 343 344 340 340 341 340 337 333 328 321 319 320 319 318 319 319 318 318 317 317 317 317 316 316 314 313 312 310 308 306 305 304 301 297 296 295 291 288 287 289 289 283 271 263
247 230 135 123 117 144 162 84 25 239 274 287 171 168 273 277 235 247 259 264 271 266 248 241 225 215 217 214 204 195 198 192 180 180 179 183 180 180 193 201 203 203 201 224 297 314 318 321 326 330 332 336 340 340 339 336 337 338 335 332 327 323 318 316 317 318 317 318 318 317 317 316 316 315 314 314 313 312 311 310 309 308 305 303 302 298 295 295 294 291 288 285 286 288 287 277 263
243 203 120 98 100 130 142 102 270 283 3 293 221 148 259 277 246 266 314 259 266 265 255 247 227 218 219 211 201 198 197 186 176 177 178 182 181 187 197 199 202 201 201 238 292 309 317 316 317 323 327 333 337 336 333 334 336 334 330 328 323 320 318 315 317 318 318 319 317 316 315 315 315 314 313 311 310 309 307 307 307 306 303 301 299 297 295 294 292 290 286 283 283 285 288 286 272
225 136 98 57 64 70 70 76 43 37 348 269 240 153 217 273 226 176 37 237 252 259 256 251 232 221 215 203 200 198 191 183 181 178 176 180 182 190 197 198 203 201 204 244 287 304 312 309 309 317 324 331 333 330 330 333 334 329 326 324 320 319 318 316 317 317 317 318 315 314 313 313 313 313 311 309 306 305 305 305 304 303 301 299 297 295 294 293 292 289 284 280 282 284 285 288 282
119 87 50 18 28 44 45 53 68 49 273 262 236 174 188 276 242 174 188 214 224 242 259 259 238 218 203 197 199 195 187 182 182 180 176 179 184 189 194 200 204 201 210 243 280 298 302 302 303 310 321 328 327 325 330 331 329 324 322 321 318 317 317 317 317 315 315 315 313 312 312 312 311 309 308 306 304 304 304 304 302 300 299 297 294 294 293 292 290 289 287 286 285 284 283 286 289
93 72 47 8 340 12 16 359 46 52 256 264 240 174 186 243 243 203 233 246 223 224 251 255 234 212 199 198 199 192 185 180 176 178 178 178 184 190 194 203 205 203 217 245 274 288 293 294 297 308 318 324 323 325 330 327 323 322 321 320 318 317 316 314 313 310 311 311 310 309 309 309 308 306 305 304 304 305 305 304 302 299 297 294 293 293 291 290 288 289 290 287 284 283 285 286 289
89 90 74 43 337 353 342 312 48 225 249 255 124 143 214 243 244 240 249 258 251 231 232 245 235 208 199 199 197 189 179 178 176 175 178 178 186 192 195 204 205 207 225 248 267 278 282 284 296 309 315 320 323 327 329 324 322 322 321 320 318 317 314 311 309 307 307 308 307 307 306 306 305 303 303 303 304 305 305 304 301 299 296 293 292 292 290 288 287 288 286 282 280 282 286 286 285
146 148 126 126 111 336 276 271 270 266 269 250 133 132 261 271 258 234 232 241 249 241 234 242 232 201 200 199 190 182 178 180 179 173 176 179 187 193 195 200 203 210 230 247 261 271 270 282 305 312 312 318 325 327 326 323 322 321 320 319 318 315 312 309 307 306 306 306 305 304 303 302 301 301 301 301 303 305 304 302 300 297 295 292 292 290 288 287 285 284 282 279 281 282 284 285 283
175 160 136 150 154 180 231 238 246 282 302 273 160 149 246 268 257 219 230 249 257 264 261 250 235 206 196 190 179 177 181 182 178 175 177 182 188 193 195 197 202 212 230 246 258 260 265 294 312 312 312 320 325 325 324 323 321 321 320 319 317 314 311 309 307 305 305 304 304 303 301 300 299 299 299 301 302 303 303 301 299 296 293 292 290 288 287 286 284 281 281 279 279 279 280 283 282
204 133 113 173 184 172 202 235 214 283 319 284 207 210 230 247 261 216 219 273 269 296 303 247 221 204 175 181 183 179 183 182 179 178 179 188 190 192 194 197 203 215 230 245 252 252 279 308 315 312 315 319 321 322 324 324 322 321 320 318 316 314 312 310 308 306 305 304 303 302 300 299 298 298 299 300 301 301 301 299 297 294 293 291 288 287 285 284 284 280 279 277 275 277 278 279 280
165 136 178 215 182 138 148 275 326 70 294 272 264 268 276 312 289 221 162 250 257 284 300 229 208 194 179 194 191 183 187 184 181 179 177 186 190 192 195 197 204 216 231 243 244 260 298 313 314 314 314 316 321 325 326 325 322 320 318 318 317 316 314 311 309 307 306 304 302 300 299 299 298 298 299 300 301 300 299 297 295 293 292 290 287 286 284 283 283 279 277 277 277 278 276 275 278
130 178 216 197 125 98 108 262 338 39 253 270 293 280 281 296 290 275 103 235 251 253 248 226 215 201 202 207 193 187 188 181 180 180 180 186 188 192 195 198 207 217 231 239 240 275 305 314 315 313 312 318 326 329 326 324 321 319 318 318 318 316 314 312 309 307 306 304 302 301 299 298 298 299 299 299 300 299 298 295 293 291 290 289 286 285 283 282 281 279 278 278 276 275 273 273 276
125 190 215 128 138 156 101 154 242 202 241 271 291 292 280 257 247 275 239 205 235 241 214 202 214 211 212 208 191 187 184 180 183 182 186 190 187 192 194 198 208 217 227 231 244 287 306 313 312 311 316 325 329 327 323 321 319 319 318 318 318 316 314 311 309 307 306 304 302 301 300 299 299 299 299 299 298 297 295 293 291 290 289 287 286 284 282 281 280 278 277 276 274 272 271 272 274
81 308 338 38 163 171 162 171 193 174 221 271 301 311 286 252 200 239 229 198 215 222 197 203 215 214 212 200 188 187 186 188 188 183 185 190 190 193 194 199 208 214 217 223 260 297 305 308 311 320 329 330 328 324 322 321 320 320 319 319 319 317 314 312 310 308 306 304 302 301 301 300 300 299 298 298 296 294 293 292 290 289 288 286 285 283 281 280 279 277 275 275 274 273 272 271 272
168 210 229 224 162 129 221 218 164 165 217 255 288 287 277 259 157 210 218 198 210 208 195 209 218 216 210 198 190 190 191 190 184 181 184 186 190 191 193 200 205 206 212 232 281 297 300 308 321 332 332 327 324 323 322 321 321 322 321 319 318 317 315 314 312 311 307 305 304 302 302 302 300 298 298 298 296 293 292 291 291 289 287 285 284 282 282 280 277 276 274 272 271 271 271 270 269
181 195 199 197 179 144 226 254 216 175 222 220 169 267 270 262 145 197 194 187 210 203 193 207 218 216 206 198 197 193 192 190 181 181 181 177 186 190 192 198 197 199 217 253 283 291 301 321 334 332 325 322 321 321 321 321 321 321 319 318 317 317 317 317 315 313 310 308 307 305 304 304 301 299 299 297 295 293 292 292 291 290 287 286 284 282 281 278 275 274 272 269 268 266 265 264 264